sat.trackr.live / text

‹ back to catalog

STARLINK-36451

NORAD 67339 · 2026-003F

PAYLOAD ACTIVE UNKNOWN

§ Identity

Operator
Country
US
Launch date
2026-01-09
Launch site
AFETR
Launch vehicle
Mass (kg)
RCS (m²)

Purposes: comms

External: N2YO · Heavens-Above · Gunter

§ Orbital elements

Epoch: 2026-05-25T00:02:01.044672Z

Period
94.27 min
Inclination
43.0011°
Eccentricity
0.0001507
Mean motion
15.27591006 rev/d
Perigee alt
482.0 km
Apogee alt
484.1 km
Semi-major
6,861.2 km
B*
5.6208e-4
RAAN
156.1992°
Arg perigee
275.9770°
Mean anomaly
84.0910°
Rev number
2,049

§ Raw data

STARLINK-364511 67339U 26003F   26145.00140098  .00015242  00000+0  56208-3 0  99962 67339  43.0011 156.1992 0001507 275.9770  84.0910 15.27591006 20495

JSON: /api/v1/satellites/67339 · /tle

For live sub-satellite position, see the globe view (requires WebGL).

§ Visibility from observer

Set your observer location to see the next 7 days of passes ≥ 10°. The values pass through the URL so the page stays shareable.

No JS? Fill the form by hand. The geolocation button needs JavaScript.